Latest Coastal Weather Observations for Arlington Reef

IDQ60701

Issued at 3:51 pm EST Saturday 18 November 2017 (issued every 10 minutes, with the page automatically refreshed every 10 minutes)

About coastal observations | Map of coastal stations | Coastal observations for QLD | Marine services | Other Formats
Station Details ID: 200879 Name: ARLINGTON REEF Lat: -16.72 Lon: 146.11 Height: 0.0 m
Data from the previous 72 hours. | See also: Recent months at Arlington Reef
Date/Time
EST
Temp
°C
Wind Pressure Rain since
9am
mm
Weather Cloud Vis
km
Sea
Height
m
Swell
Dir  Spd
kts
Gust
kts
hPa Trend Height
m
Period
s
Dir
18/03:30pm - SE 10 12 1010.0 - - - - - - - - -
18/03:00pm - SE 11 13 1010.1 - - - - - - - - -
18/02:30pm - SSE 10 13 1010.5 - - - - - - - - -
18/02:00pm - SSE 10 13 1011.1 - - - - - - - - -
18/01:30pm - SSE 10 12 1011.3 - - - - - - - - -
18/01:00pm - SE 11 12 1011.6 - - - - - - - - -
18/12:30pm - SE 10 12 1011.8 - - - - - - - - -
18/12:00pm - SE 11 13 1012.1 - - - - - - - - -
18/11:30am - SE 11 13 1012.3 - - - - - - - - -
18/11:00am - SE 12 13 1012.3 - - - - - - - - -
18/10:30am - SE 11 14 1012.4 - - - - - - - - -
18/10:00am - SE 10 13 1012.6 - - - - - - - - -
18/09:30am - SE 11 13 1012.6 - - - - - - - - -
18/09:00am - SE 10 13 1012.5 - - - - - - - - -
18/08:30am - SE 12 15 1012.2 - - - - - - - - -
18/08:00am - SE 12 14 1011.9 - - - - - - - - -
18/07:30am - SE 12 14 1011.6 - - - - - - - - -
18/07:00am - SE 13 15 1011.2 - - - - - - - - -
18/06:30am - SE 12 14 1010.9 - - - - - - - - -
18/06:00am - SE 13 15 1010.5 - - - - - - - - -
18/05:30am - SE 13 15 1010.3 - - - - - - - - -
18/05:00am - SE 13 15 1010.1 - - - - - - - - -
18/04:30am - SE 15 17 1010.1 - - - - - - - - -
18/04:00am - SE 14 17 1010.0 - - - - - - - - -
18/03:30am - SE 14 16 1010.3 - - - - - - - - -
18/03:00am - SE 13 16 1010.2 - - - - - - - - -
18/02:30am - SE 12 14 1010.5 - - - - - - - - -
18/02:00am - SE 13 16 1010.6 - - - - - - - - -
18/01:30am - SE 13 16 1010.8 - - - - - - - - -
18/01:00am - SE 14 16 1011.2 - - - - - - - - -
18/12:30am - SE 14 18 1011.6 - - - - - - - - -
18/12:00am - SE 14 17 1011.8 - - - - - - - - -
 
Date/Time
EST
Temp
°C
Wind Pressure Rain since
9am
mm
Weather Cloud Vis
km
Sea
Height
m
Swell
Dir  Spd
kts
Gust
kts
hPa Trend Height
m
Period
s
Dir
17/11:30pm - SE 14 16 1012.1 - - - - - - - - -
17/11:00pm - SE 14 17 1012.3 - - - - - - - - -
17/10:30pm - SE 16 18 1012.4 - - - - - - - - -
17/10:00pm - SE 16 20 1012.3 - - - - - - - - -
17/09:30pm - SE 16 19 1012.0 - - - - - - - - -
17/09:00pm - SE 17 19 1011.7 - - - - - - - - -
17/08:30pm - ESE 18 20 1011.4 - - - - - - - - -
17/08:00pm - SE 19 21 1011.2 - - - - - - - - -
17/07:30pm - SE 18 21 1011.1 - - - - - - - - -
17/07:00pm - SE 16 19 1010.8 - - - - - - - - -
17/06:30pm - SE 17 20 1010.7 - - - - - - - - -
17/06:00pm - SE 17 20 1010.7 - - - - - - - - -
17/05:30pm - SE 16 18 1010.8 - - - - - - - - -
17/05:00pm - SE 17 20 1010.5 - - - - - - - - -
17/04:30pm - SE 16 18 1010.4 - - - - - - - - -
17/04:00pm - SE 15 17 1010.5 - - - - - - - - -
17/03:30pm - SE 14 16 1010.8 - - - - - - - - -
17/03:00pm - SE 14 16 1010.9 - - - - - - - - -
17/02:30pm - SE 14 16 1010.9 - - - - - - - - -
17/02:00pm - SE 14 16 1011.1 - - - - - - - - -
17/01:30pm - SE 14 16 1011.3 - - - - - - - - -
17/01:00pm - SSE 14 16 1011.6 - - - - - - - - -
17/12:30pm - SE 15 16 1012.1 - - - - - - - - -
17/12:00pm - SE 14 16 1012.4 - - - - - - - - -
17/11:30am - SE 15 17 1012.6 - - - - - - - - -
17/11:00am - SE 15 18 1012.6 - - - - - - - - -
17/10:30am - SE 14 17 1012.9 - - - - - - - - -
17/10:00am - SE 14 16 1013.1 - - - - - - - - -
17/09:30am - SE 14 16 1013.1 - - - - - - - - -
17/09:00am - SSE 13 16 1013.1 - - - - - - - - -
17/08:30am - SE 13 16 1012.8 - - - - - - - - -
17/08:00am - ESE 14 16 1012.7 - - - - - - - - -
17/07:30am - ESE 15 17 1012.3 - - - - - - - - -
17/07:00am - SE 14 17 1012.1 - - - - - - - - -
17/06:30am - ESE 14 17 1011.7 - - - - - - - - -
17/06:00am - SE 15 17 1011.6 - - - - - - - - -
17/05:30am - SE 15 18 1011.1 - - - - - - - - -
17/05:00am - SE 15 18 1011.0 - - - - - - - - -
17/04:30am - SE 15 19 1010.9 - - - - - - - - -
17/04:00am - SE 16 19 1010.8 - - - - - - - - -
17/03:30am - SE 16 18 1010.8 - - - - - - - - -
17/03:00am - SE 16 19 1010.8 - - - - - - - - -
17/02:30am - ESE 16 20 1011.0 - - - - - - - - -
17/02:00am - SE 15 17 1011.1 - - - - - - - - -
17/01:30am - SE 14 16 1011.1 - - - - - - - - -
17/01:00am - SE 15 17 1011.2 - - - - - - - - -
17/12:30am - SE 16 18 1011.6 - - - - - - - - -
17/12:00am - SE 15 19 1011.7 - - - - - - - - -
 
Date/Time
EST
Temp
°C
Wind Pressure Rain since
9am
mm
Weather Cloud Vis
km
Sea
Height
m
Swell
Dir  Spd
kts
Gust
kts
hPa Trend Height
m
Period
s
Dir
16/11:30pm - SE 15 17 1011.9 - - - - - - - - -
16/11:00pm - SE 16 18 1012.0 - - - - - - - - -
16/10:30pm - ESE 16 19 1012.3 - - - - - - - - -
16/10:00pm - SE 17 19 1012.3 - - - - - - - - -
16/09:30pm - SE 17 20 1011.9 - - - - - - - - -
16/09:00pm - SE 15 18 1011.9 - - - - - - - - -
16/08:30pm - SE 15 20 1011.6 - - - - - - - - -
16/08:00pm - SE 17 19 1011.6 - - - - - - - - -
16/07:30pm - SSE 16 18 1011.4 - - - - - - - - -
16/07:00pm - SSE 16 20 1011.3 - - - - - - - - -
16/06:30pm - SE 17 19 1011.2 - - - - - - - - -
16/06:00pm - SE 16 19 1010.9 - - - - - - - - -
16/05:30pm - SSE 16 19 1010.6 - - - - - - - - -
16/05:00pm - SSE 16 19 1010.2 - - - - - - - - -
16/04:30pm - SSE 16 18 1010.1 - - - - - - - - -
16/04:00pm - SSE 15 18 1010.2 - - - - - - - - -
16/03:30pm - SSE 15 17 1010.5 - - - - - - - - -
16/03:00pm - SSE 15 18 1010.6 - - - - - - - - -
16/02:30pm - SSE 16 19 1010.8 - - - - - - - - -
16/02:00pm - SSE 16 18 1011.0 - - - - - - - - -
16/01:30pm - SSE 15 18 1011.3 - - - - - - - - -
16/01:00pm - SSE 15 18 1011.5 - - - - - - - - -
16/12:30pm - SSE 16 18 1011.7 - - - - - - - - -
16/12:00pm - SSE 15 17 1012.2 - - - - - - - - -
16/11:30am - SSE 14 16 1012.5 - - - - - - - - -
16/11:00am - SSE 14 16 1012.8 - - - - - - - - -
16/10:30am - SSE 14 17 1012.9 - - - - - - - - -
16/10:00am - SSE 14 17 1013.1 - - - - - - - - -
16/09:30am - SSE 14 16 1013.1 - - - - - - - - -
16/09:00am - SE 13 16 1013.1 - - - - - - - - -
16/08:30am - SE 13 15 1012.9 - - - - - - - - -
16/08:00am - SSE 15 18 1012.7 - - - - - - - - -
16/07:30am - SE 13 15 1012.6 - - - - - - - - -
16/07:00am - SE 13 16 1012.2 - - - - - - - - -
16/06:30am - SE 15 17 1011.9 - - - - - - - - -
16/06:00am - SE 14 17 1011.4 - - - - - - - - -
16/05:30am - SE 15 17 1011.1 - - - - - - - - -
16/05:00am - SE 14 17 1011.0 - - - - - - - - -
16/04:30am - SE 15 17 1011.0 - - - - - - - - -
16/04:00am - SE 14 17 1010.8 - - - - - - - - -
16/03:30am - SE 15 18 1010.7 - - - - - - - - -
16/03:00am - SE 15 17 1011.0 - - - - - - - - -
16/02:30am - SE 15 18 1011.1 - - - - - - - - -
16/02:00am - SE 16 18 1011.1 - - - - - - - - -
16/01:30am - SE 16 18 1011.3 - - - - - - - - -
16/01:00am - SE 16 20 1011.4 - - - - - - - - -
16/12:30am - SE 15 19 1011.9 - - - - - - - - -
16/12:00am - SE 17 19 1012.2 - - - - - - - - -
 
Date/Time
EST
Temp
°C
Wind Pressure Rain since
9am
mm
Weather Cloud Vis
km
Sea
Height
m
Swell
Dir  Spd
kts
Gust
kts
hPa Trend Height
m
Period
s
Dir
15/11:30pm - SE 17 19 1012.7 - - - - - - - - -
15/11:00pm - SE 16 18 1013.0 - - - - - - - - -
15/10:30pm - SE 16 18 1013.1 - - - - - - - - -
15/10:00pm - SE 16 18 1013.1 - - - - - - - - -
15/09:30pm - SE 17 19 1013.0 - - - - - - - - -
15/09:00pm - SE 17 19 1012.8 - - - - - - - - -
15/08:30pm - SE 15 18 1012.6 - - - - - - - - -
15/08:00pm - SE 17 20 1012.6 - - - - - - - - -
15/07:30pm - SE 17 19 1012.5 - - - - - - - - -
15/07:00pm - SE 16 19 1012.3 - - - - - - - - -
15/06:30pm - ESE 17 20 1012.0 - - - - - - - - -
15/06:00pm - SE 16 18 1011.7 - - - - - - - - -
15/05:30pm - SE 16 19 1011.5 - - - - - - - - -
15/05:00pm - SE 16 19 1011.3 - - - - - - - - -
15/04:30pm - SE 16 20 1011.0 - - - - - - - - -
15/04:00pm - SE 15 17 1011.1 - - - - - - - - -

Other Formats:

Comma delimited format used in spreadsheet applications
http://www.bom.gov.au/fwo/IDQ60701/IDQ60701.94284.axf

JavaScript Object Notation format (JSON) in row-major order
http://www.bom.gov.au/fwo/IDQ60701/IDQ60701.94284.json